STARLINK-1593, 46119

Orbit data source: Space-Track

STARLINK-1593, 46119 is a payload satellite owned by SpaceX/Seattle (US) in LEO that was launched on Tue, 18 Aug 2020 UTC via an FALCON 9 launch vehicle from the Air Force Eastern Test Range (AFETR). Payload-class satellites include a variety of spacecraft equipped with specific instruments for various scientific and technological missions. These include communications satellites like Starlink; space stations such as the ISS; scientific satellites like the Hubble; Earth observation satellites from companies like Planet Labs, Umbra, and HawkEye 360; GPS; miniature CubeSats for education and research; and military/defense satellites.

Loading next visibility...
Identifier
46119, 2020-057C
Orbit
LEO
Country
Flag of USUS
Related business
Manufacturer
SpaceX/Seattle
Mission
Operational Commercial Communications
Bus & Motor
STARLINK, Unknown motor
Mass
260 kg wet, ~248 kg dry
Launch date (UTC)
2020-08-18 (5 years ago)
Launch vehicle
FALCON 9
Launch site
Air Force Eastern Test Range (AFETR)
Object type
Payload
Rocket body
Debris
Shape & HBR
Box + 1 Pan, 10.1 m
Radar Cross Section
13.562 m², Large (>1 m²)

Expand to show TLE details & history
Last TLE update: 17 hours ago

TLE from 17 hours ago
0 STARLINK-1593
1 46119U 20057C   25287.00005787  .00040172  00000-0  21979-2 0  9990
2 46119  53.0542 255.3786 0001681 106.3953 188.0063 15.13894111  5646
Epoch: 2025-10-14T00:00Z
TLE epoch observation values (Epoch: 2025-10-14T00:00:04.999Z)
Latitude
-46.88768°
Longitude
179.53483°
Altitude
541.481 km
Speed
7.591 km/s
True Right ascension
13h 29m 24s
True Declination
-46° 42' 38"
Sunlit
Object was in daylight at epoch
Visualization orbit readout
Latitude
Unknown
Longitude
Unknown
Altitude
Unknown
Speed
Unknown
Apparent Right ascension
Unknown
Apparent Declination
Unknown
Sunlit
N/A
Visualization observer readout
Local Sidereal Time
11:28:22
Azimuth
Unknown
Elevation
Unknown
Doppler factor
Unknown
Orbital elements
Apogee altitude
525.77 km
Perigee altitude
523.449 km
Semi-major axis
6,902.747 km
Eccentricity
0.00017
Inclination
53.0542°
RAAN
255.3786°
Arg. of periapsis
106.3953°
True anomaly
188.00362°
Mean anomaly
188.0063°
Eccentric anomaly
188.00496°
Mean motion
3.78452 °/min
Orbital period
95.12 mins
BSTAR
0.0021979
Loading maneuver chart data...
Computing Atmospheric mass density...
Loading historical data...
Loading historical data...
Loading historical data...
Loading historical data...
Loading historical data...
Loading historical data...
Loading historical data...

Documentation

Showing up to 5 results
|